Flag for U.S.A. Weather past 2 weeks in Casper, Wyoming, U.S.A.

44 °F

Low clouds.

Feels Like: 39 °F
Forecast: 39 / 71 °F
Wind: 9 mph from Northwest

Location: Natrona County International Airport

Current Time: Oct 4, 2015 at 10:29:11 PM

Latest Report: Oct 4, 2015 at 9:00 PM

Visibility: 10 mi

Pressure: 30.08 "Hg (24.84 "Hg at 1569m altitude)

Humidity: 89%

Dew point: 41 °F

Location of CasperLocation

Historic Weather in Casper — Graph


Casper temperature yesterday

Maximum temperature yesterday: 59 °F (at 1:53 PM)
Minimum temperature yesterday: 43 °F (at 10:53 PM)
Average temperature yesterday: 50 °F

Past Weeks' High & Low Weather Summary

High90 °F (Sep 26, 1:53 PM)100% (Sep 23, 7:53 AM)30.18 "Hg (Sep 23, 7:53 AM)
Low40 °F (Sep 22, 6:53 AM)7% (Sep 23, 3:53 PM)29.62 "Hg (Oct 2, 3:53 PM)
Average60 °F51%29.94 "Hg
* Reported Sep 19 9:53 PM — Oct 4 9:00 PM, Casper, Weather by CustomWeather, © 2015

Note: Actual official high and low records may vary slightly from our data, if they occured in-between our weather recording intervals... More about our weather records


Casper weather history for previous 24 hours

Time TempWeatherWind HumidityBarometerVisibility
9:00 PM
Sun, Oct 4
44 °FLow clouds.9 mph89%30.08 "Hg10 mi
7:53 PM44 °FOvercast.9 mph89%30.05 "Hg10 mi
6:53 PM44 °FLow clouds.9 mph89%30.05 "Hg10 mi
5:53 PM44 °FOvercast.13 mph85%30.03 "Hg10 mi
4:53 PM45 °FOvercast.13 mph82%30.05 "Hg10 mi
3:53 PM46 °FOvercast.12 mph79%30.04 "Hg10 mi
2:53 PM45 °FOvercast.13 mph82%30.05 "Hg10 mi
1:53 PM46 °FOvercast.14 mph83%30.06 "Hg10 mi
1:00 PM46 °FOvercast.9 mph83%30.11 "Hg10 mi
11:53 AM44 °FLow clouds.8 mph85%30.09 "Hg10 mi
10:53 AM42 °FLow clouds.15 mph89%30.10 "Hg9 mi
9:53 AM41 °FLight rain. Mostly cloudy.10 mph93%30.12 "Hg10 mi
8:53 AM41 °FLow clouds.15 mph89%30.09 "Hg10 mi
8:03 AM40 °FLight rain. Mostly cloudy.13 mph93%30.12 "Hg8 mi
7:53 AM40 °FLight rain. Mostly cloudy.13 mph93%30.09 "Hg10 mi
6:53 AM40 °FFog.12 mph93%30.07 "Hg6 mi
5:53 AM41 °FMostly cloudy.12 mph89%30.01 "Hg10 mi
4:53 AM41 °FLow clouds.10 mph93%30.00 "Hg10 mi
3:53 AM41 °FLow clouds.10 mph93%30.00 "Hg10 mi
2:53 AM41 °FLight rain. Low clouds.9 mph93%29.99 "Hg8 mi
1:53 AM41 °FLight rain. Fog.10 mph96%29.98 "Hg4 mi
12:53 AM42 °FLight rain. Fog.14 mph92%29.98 "Hg3 mi
11:53 PM
Sat, Oct 3
43 °FLight rain. Fog.13 mph93%29.97 "Hg6 mi
10:53 PM43 °FLow clouds.17 mph89%29.98 "Hg10 mi
Weather by CustomWeather, © 2015

See weather overviewHow to use our weather pages